owner,sensor,date,latitude,longitude,vertical_datum,wind_speed,wind_to_direction,wind_speed_of_gust,qcFlag 
TABS,ioos:station:wmo:42046:1,2009-06-01T00:00:00Z,27.8903,-94.0367,4.0,5.24511201,125.6903973,6.78,'11111222,11111222,11111222' 
TABS,ioos:station:wmo:42046:1,2009-06-01T00:30:00Z,27.8903,-94.0367,4.0,5.010429123,125.0860408,6.84,'11111222,11111222,11111222' 
TABS,ioos:station:wmo:42046:1,2009-06-01T01:00:00Z,27.8903,-94.0367,4.0,4.782603893,127.7807515,6.32,'11111222,11111222,11111222' 
TABS,ioos:station:wmo:42046:1,2009-06-01T01:30:00Z,27.8903,-94.0367,4.0,5.101097921,129.4319869,6.43,'11111222,11111222,11111222' 
TABS,ioos:station:wmo:42046:1,2009-06-01T02:00:00Z,27.8903,-94.0367,4.0,5.07276059,123.5024531,6.68,'11111222,11111222,11111222' 
TABS,ioos:station:wmo:42046:1,2009-06-01T02:30:00Z,27.8903,-94.0367,4.0,5.175413027,123.4140662,7.04,'11111222,11111222,11111222' 
TABS,ioos:station:wmo:42046:1,2009-06-01T03:00:00Z,27.8903,-94.0367,4.0,5.594747537,121.7017765,7.32,'11111222,11111222,11111222' 
TABS,ioos:station:wmo:42046:1,2009-06-01T03:30:00Z,27.8903,-94.0367,4.0,5.730985954,133.0205138,7.91,'11111222,11111222,11111222' 
TABS,ioos:station:wmo:42046:1,2009-06-01T04:00:00Z,27.8903,-94.0367,4.0,6.072133068,128.9843391,7.98,'11111222,11111222,11111222' 
TABS,ioos:station:wmo:42046:1,2009-06-01T04:30:00Z,27.8903,-94.0367,4.0,5.903388857,132.391527,7.74,'11111222,11111222,11111222' 
TABS,ioos:station:wmo:42046:1,2009-06-01T05:00:00Z,27.8903,-94.0367,4.0,5.548927824,132.5171115,7.75,'11111222,11111222,11111222' 
TABS,ioos:station:wmo:42046:1,2009-06-01T05:30:00Z,27.8903,-94.0367,4.0,5.641072593,132.4858113,7.48,'11111222,11111222,11111222' 
TABS,ioos:station:wmo:42046:1,2009-06-01T06:00:00Z,27.8903,-94.0367,4.0,5.532178594,133.2424333,7.05,'11111222,11111222,11111222' 
TABS,ioos:station:wmo:42046:1,2009-06-01T06:30:00Z,27.8903,-94.0367,4.0,5.386213884,142.6197941,7.08,'11111222,11111222,11111222' 
TABS,ioos:station:wmo:42046:1,2009-06-01T07:00:00Z,27.8903,-94.0367,4.0,5.462096667,140.4230543,7.43,'11111222,11111222,11111222' 
TABS,ioos:station:wmo:42046:1,2009-06-01T07:30:00Z,27.8903,-94.0367,4.0,5.343753363,137.5030357,6.84,'11111222,11111222,11111222' 
TABS,ioos:station:wmo:42046:1,2009-06-01T08:00:00Z,27.8903,-94.0367,4.0,4.971810535,133.9409153,6.34,'11111222,11111222,11111222' 
TABS,ioos:station:wmo:42046:1,2009-06-01T08:30:00Z,27.8903,-94.0367,4.0,4.947726751,129.0941884,6.36,'11111222,11111222,11111222' 
TABS,ioos:station:wmo:42046:1,2009-06-01T09:00:00Z,27.8903,-94.0367,4.0,4.587134182,125.5960953,6.22,'11111222,11111222,11111222' 
TABS,ioos:station:wmo:42046:1,2009-06-01T09:30:00Z,27.8903,-94.0367,4.0,4.926032887,114.8486158,6.36,'11111222,11111222,11111222' 
TABS,ioos:station:wmo:42046:1,2009-06-01T10:00:00Z,27.8903,-94.0367,4.0,5.121406057,113.9628539,6.41,'11111222,11111222,11111222' 
TABS,ioos:station:wmo:42046:1,2009-06-01T10:30:00Z,27.8903,-94.0367,4.0,4.657434916,111.2763556,5.97,'11111222,11111222,11111222' 
TABS,ioos:station:wmo:42046:1,2009-06-01T11:00:00Z,27.8903,-94.0367,4.0,4.700574433,115.8567464,6.26,'11111222,11111222,11111222' 
TABS,ioos:station:wmo:42046:1,2009-06-01T11:30:00Z,27.8903,-94.0367,4.0,4.173260117,106.5681238,5.6,'11111222,11111222,11111222' 
TABS,ioos:station:wmo:42046:1,2009-06-01T12:00:00Z,27.8903,-94.0367,4.0,4.688464567,103.4438369,6.45,'11111222,11111222,11111222' 
TABS,ioos:station:wmo:42046:1,2009-06-01T12:30:00Z,27.8903,-94.0367,4.0,4.892811053,106.1388018,6.88,'11111222,11111222,11111222' 
TABS,ioos:station:wmo:42046:1,2009-06-01T13:00:00Z,27.8903,-94.0367,4.0,5.195623158,108.4004541,6.78,'11111222,11111222,11111222' 
TABS,ioos:station:wmo:42046:1,2009-06-01T13:30:00Z,27.8903,-94.0367,4.0,4.905394989,105.3681897,6.17,'11111222,11111222,11111222' 
TABS,ioos:station:wmo:42046:1,2009-06-01T14:00:00Z,27.8903,-94.0367,4.0,4.988436629,107.0186654,6.49,'11111222,11111222,11111222' 
TABS,ioos:station:wmo:42046:1,2009-06-01T14:30:00Z,27.8903,-94.0367,4.0,4.817239874,106.027467,6.05,'11111222,11111222,11111222' 
TABS,ioos:station:wmo:42046:1,2009-06-01T15:00:00Z,27.8903,-94.0367,4.0,4.926114087,103.5006466,6.46,'11111222,11111222,11111222' 
TABS,ioos:station:wmo:42046:1,2009-06-01T15:30:00Z,27.8903,-94.0367,4.0,4.447313796,107.1315257,6.37,'11111222,11111222,11111222' 
TABS,ioos:station:wmo:42046:1,2009-06-01T16:00:00Z,27.8903,-94.0367,4.0,4.776996965,115.5462129,6.34,'11111222,11111222,11111222' 
TABS,ioos:station:wmo:42046:1,2009-06-01T16:30:00Z,27.8903,-94.0367,4.0,5.801120581,119.879988,7.16,'11111222,11111222,11111222' 
TABS,ioos:station:wmo:42046:1,2009-06-01T17:00:00Z,27.8903,-94.0367,4.0,5.40940847,122.5446495,6.73,'11111222,11111222,11111222' 
TABS,ioos:station:wmo:42046:1,2009-06-01T17:30:00Z,27.8903,-94.0367,4.0,5.421752484,119.2602434,6.93,'11111222,11111222,11111222' 
TABS,ioos:station:wmo:42046:1,2009-06-01T18:00:00Z,27.8903,-94.0367,4.0,5.398536839,117.4672553,6.72,'11111222,11111222,11111222' 
TABS,ioos:station:wmo:42046:1,2009-06-01T18:30:00Z,27.8903,-94.0367,4.0,5.040525766,121.4514669,6.36,'11111222,11111222,11111222' 
TABS,ioos:station:wmo:42046:1,2009-06-01T19:00:00Z,27.8903,-94.0367,4.0,5.024788553,118.4015071,7.12,'11111222,11111222,11111222' 
TABS,ioos:station:wmo:42046:1,2009-06-01T19:30:00Z,27.8903,-94.0367,4.0,4.397647098,118.0805062,5.6,'11111222,11111222,11111222' 
TABS,ioos:station:wmo:42046:1,2009-06-01T20:00:00Z,27.8903,-94.0367,4.0,4.096950085,113.7498599,5.27,'11111222,11111222,11111222' 
TABS,ioos:station:wmo:42046:1,2009-06-01T20:30:00Z,27.8903,-94.0367,4.0,3.838137569,113.4929795,5.19,'11111222,11111222,11111222' 
TABS,ioos:station:wmo:42046:1,2009-06-01T21:00:00Z,27.8903,-94.0367,4.0,3.628291609,106.9870095,4.37,'11111222,11111222,11111222' 
TABS,ioos:station:wmo:42046:1,2009-06-01T21:30:00Z,27.8903,-94.0367,4.0,3.870710529,108.0608506,5.05,'11111222,11111222,11111222' 
TABS,ioos:station:wmo:42046:1,2009-06-01T22:00:00Z,27.8903,-94.0367,4.0,3.972002014,107.8879327,5.21,'11111222,11111222,11111222' 
TABS,ioos:station:wmo:42046:1,2009-06-01T22:30:00Z,27.8903,-94.0367,4.0,3.747745989,110.9500734,4.99,'11111222,11111222,11111222' 
TABS,ioos:station:wmo:42046:1,2009-06-01T23:00:00Z,27.8903,-94.0367,4.0,4.616373035,125.0330305,5.88,'11111222,11111222,11111222' 
TABS,ioos:station:wmo:42046:1,2009-06-01T23:30:00Z,27.8903,-94.0367,4.0,5.15,126.8702323,6.4,'11111222,11111222,11111222' 
TABS,ioos:station:wmo:42046:1,2009-06-02T00:00:00Z,27.8903,-94.0367,4.0,5.268719009,129.7641281,6.43,'11111222,11111222,11111222' 
TABS,ioos:station:wmo:42046:1,2009-06-02T00:30:00Z,27.8903,-94.0367,4.0,4.652139293,127.313612,6.13,'11111222,11111222,11111222' 
TABS,ioos:station:wmo:42046:1,2009-06-02T01:00:00Z,27.8903,-94.0367,4.0,4.932058394,126.5914236,6.36,'11111222,11111222,11111222' 
TABS,ioos:station:wmo:42046:1,2009-06-02T01:30:00Z,27.8903,-94.0367,4.0,4.926662156,119.6875331,6.27,'11111222,11111222,11111222' 
TABS,ioos:station:wmo:42046:1,2009-06-02T02:00:00Z,27.8903,-94.0367,4.0,4.516912662,116.2817705,5.86,'11111222,11111222,11111222' 
TABS,ioos:station:wmo:42046:1,2009-06-02T02:30:00Z,27.8903,-94.0367,4.0,4.132275402,116.7514341,5.15,'11111222,11111222,11111222' 
TABS,ioos:station:wmo:42046:1,2009-06-02T03:00:00Z,27.8903,-94.0367,4.0,4.602455866,115.6189208,5.61,'11111222,11111222,11111222' 
TABS,ioos:station:wmo:42046:1,2009-06-02T03:30:00Z,27.8903,-94.0367,4.0,4.68385525,131.2783094,6.18,'11111222,11111222,11111222' 
TABS,ioos:station:wmo:42046:1,2009-06-02T04:00:00Z,27.8903,-94.0367,4.0,5.278200451,126.3708892,6.68,'11111222,11111222,11111222' 
TABS,ioos:station:wmo:42046:1,2009-06-02T04:30:00Z,27.8903,-94.0367,4.0,5.254074609,126.5648911,7.13,'11111222,11111222,11111222' 
TABS,ioos:station:wmo:42046:1,2009-06-02T05:00:00Z,27.8903,-94.0367,4.0,5.59572158,130.5794087,7.09,'11111222,11111222,11111222' 
TABS,ioos:station:wmo:42046:1,2009-06-02T05:30:00Z,27.8903,-94.0367,4.0,5.95021008,126.3887677,7.54,'11111222,11111222,11111222' 
TABS,ioos:station:wmo:42046:1,2009-06-02T06:00:00Z,27.8903,-94.0367,4.0,5.755432217,129.3597794,6.93,'11111222,11111222,11111222' 
TABS,ioos:station:wmo:42046:1,2009-06-02T06:30:00Z,27.8903,-94.0367,4.0,5.120595668,131.7546612,6.62,'11111222,11111222,11111222' 
TABS,ioos:station:wmo:42046:1,2009-06-02T07:00:00Z,27.8903,-94.0367,4.0,5.327382096,131.4998905,6.6,'11111222,11111222,11111222' 
TABS,ioos:station:wmo:42046:1,2009-06-02T07:30:00Z,27.8903,-94.0367,4.0,5.084220688,134.6018823,6.42,'11111222,11111222,11111222' 
TABS,ioos:station:wmo:42046:1,2009-06-02T08:00:00Z,27.8903,-94.0367,4.0,5.400925847,127.9311416,6.77,'11111222,11111222,11111222' 
TABS,ioos:station:wmo:42046:1,2009-06-02T08:30:00Z,27.8903,-94.0367,4.0,4.813740749,130.8727336,6.33,'11111222,11111222,11111222' 
TABS,ioos:station:wmo:42046:1,2009-06-02T09:00:00Z,27.8903,-94.0367,4.0,4.919278402,132.4463754,6.04,'11111222,11111222,11111222' 
TABS,ioos:station:wmo:42046:1,2009-06-02T09:30:00Z,27.8903,-94.0367,4.0,5.059416962,132.8377314,6.88,'11111222,11111222,11111222' 
TABS,ioos:station:wmo:42046:1,2009-06-02T10:00:00Z,27.8903,-94.0367,4.0,5.798430822,135.4195446,7.25,'11111222,11111222,11111222' 
TABS,ioos:station:wmo:42046:1,2009-06-02T10:30:00Z,27.8903,-94.0367,4.0,5.20447884,134.533242,7.21,'11111222,11111222,11111222' 
TABS,ioos:station:wmo:42046:1,2009-06-02T11:00:00Z,27.8903,-94.0367,4.0,4.515085824,137.3339567,5.64,'11111222,11111222,11111222' 
TABS,ioos:station:wmo:42046:1,2009-06-02T11:30:00Z,27.8903,-94.0367,4.0,4.205294282,154.9586826,5.3,'11111222,11111222,11111222' 
TABS,ioos:station:wmo:42046:1,2009-06-02T12:00:00Z,27.8903,-94.0367,4.0,3.576492695,158.1691034,4.96,'11111222,11111222,11111222' 
TABS,ioos:station:wmo:42046:1,2009-06-02T12:30:00Z,27.8903,-94.0367,4.0,2.806082679,151.2431568,3.66,'11111222,11111222,11111222' 
TABS,ioos:station:wmo:42046:1,2009-06-02T13:00:00Z,27.8903,-94.0367,4.0,3.074231611,151.4344405,4.01,'11111222,11111222,11111222' 
TABS,ioos:station:wmo:42046:1,2009-06-02T13:30:00Z,27.8903,-94.0367,4.0,2.967709555,146.6850477,3.82,'11111222,11111222,11111222' 
TABS,ioos:station:wmo:42046:1,2009-06-02T14:00:00Z,27.8903,-94.0367,4.0,2.21054292,160.9915478,3.01,'11111222,11111222,11111222' 
TABS,ioos:station:wmo:42046:1,2009-06-02T14:30:00Z,27.8903,-94.0367,4.0,2.141494805,145.2712954,2.89,'11111222,11111222,11111222' 
TABS,ioos:station:wmo:42046:1,2009-06-02T15:00:00Z,27.8903,-94.0367,4.0,1.622744589,138.7479519,2.25,'11111222,11111222,11111222' 
TABS,ioos:station:wmo:42046:1,2009-06-02T15:30:00Z,27.8903,-94.0367,4.0,1.578131807,123.8917995,2.2,'11111222,11111222,11111222' 
TABS,ioos:station:wmo:42046:1,2009-06-02T16:00:00Z,27.8903,-94.0367,4.0,1.284056074,127.4056901,1.7,'11111222,11111222,11111222' 
TABS,ioos:station:wmo:42046:1,2009-06-02T16:30:00Z,27.8903,-94.0367,4.0,0.828009662,127.1470208,1.27,'11111222,11111222,11111222' 
TABS,ioos:station:wmo:42046:1,2009-06-02T17:00:00Z,27.8903,-94.0367,4.0,0.568594759,113.8605403,0.97,'11111222,11111222,11111222' 
TABS,ioos:station:wmo:42046:1,2009-06-02T17:30:00Z,27.8903,-94.0367,4.0,0.464865572,108.8250869,1.03,'11111222,11111222,11111222' 
TABS,ioos:station:wmo:42046:1,2009-06-02T18:00:00Z,27.8903,-94.0367,4.0,7.080748548,189.1831516,11.55,'11111222,11111222,11111222' 
TABS,ioos:station:wmo:42046:1,2009-06-02T18:30:00Z,27.8903,-94.0367,4.0,5.827332151,153.830964,7.73,'11111222,11111222,11111222' 
TABS,ioos:station:wmo:42046:1,2009-06-02T19:00:00Z,27.8903,-94.0367,4.0,8.345945123,115.7057328,10.73,'11111222,11111222,11111222' 
TABS,ioos:station:wmo:42046:1,2009-06-02T19:30:00Z,27.8903,-94.0367,4.0,8.484197075,130.411173,11.14,'11111222,11111222,11111222' 
TABS,ioos:station:wmo:42046:1,2009-06-02T20:00:00Z,27.8903,-94.0367,4.0,4.950727219,153.7457639,6.4,'11111222,11111222,11111222' 
TABS,ioos:station:wmo:42046:1,2009-06-02T20:30:00Z,27.8903,-94.0367,4.0,2.287116088,131.9875352,2.99,'11111222,11111222,11111222' 
TABS,ioos:station:wmo:42046:1,2009-06-02T21:00:00Z,27.8903,-94.0367,4.0,2.79760612,140.2209547,4.43,'11111222,11111222,11111222' 
TABS,ioos:station:wmo:42046:1,2009-06-02T21:30:00Z,27.8903,-94.0367,4.0,2.852718002,139.8347107,4.0,'11111222,11111222,11111222' 
TABS,ioos:station:wmo:42046:1,2009-06-02T22:00:00Z,27.8903,-94.0367,4.0,3.671648131,116.356048,4.76,'11111222,11111222,11111222' 
TABS,ioos:station:wmo:42046:1,2009-06-02T22:30:00Z,27.8903,-94.0367,4.0,4.616080589,96.0938717,5.77,'11111222,11111222,11111222' 
TABS,ioos:station:wmo:42046:1,2009-06-02T23:00:00Z,27.8903,-94.0367,4.0,4.83934913,112.219507,6.09,'11111222,11111222,11111222' 
TABS,ioos:station:wmo:42046:1,2009-06-02T23:30:00Z,27.8903,-94.0367,4.0,4.40402089,113.1306261,5.48,'11111222,11111222,11111222' 
TABS,ioos:station:wmo:42046:1,2009-06-03T00:00:00Z,27.8903,-94.0367,4.0,6.103810285,136.2615456,8.07,'11111222,11111222,11111222' 
TABS,ioos:station:wmo:42046:1,2009-06-03T00:30:00Z,27.8903,-94.0367,4.0,5.594157667,146.2250027,7.4,'11111222,11111222,11111222' 
TABS,ioos:station:wmo:42046:1,2009-06-03T01:00:00Z,27.8903,-94.0367,4.0,7.539084825,136.0751548,9.77,'11111222,11111222,11111222' 
TABS,ioos:station:wmo:42046:1,2009-06-03T01:30:00Z,27.8903,-94.0367,4.0,6.74200267,126.9212222,8.29,'11111222,11111222,11111222' 
TABS,ioos:station:wmo:42046:1,2009-06-03T02:00:00Z,27.8903,-94.0367,4.0,5.819527472,135.2091689,7.52,'11111222,11111222,11111222' 
TABS,ioos:station:wmo:42046:1,2009-06-03T02:30:00Z,27.8903,-94.0367,4.0,4.619004222,131.4896455,5.71,'11111222,11111222,11111222' 
TABS,ioos:station:wmo:42046:1,2009-06-03T03:00:00Z,27.8903,-94.0367,4.0,3.548182633,126.2888985,4.38,'11111222,11111222,11111222' 
TABS,ioos:station:wmo:42046:1,2009-06-03T03:30:00Z,27.8903,-94.0367,4.0,3.272262214,119.0719638,4.12,'11111222,11111222,11111222' 
TABS,ioos:station:wmo:42046:1,2009-06-03T04:00:00Z,27.8903,-94.0367,4.0,4.017872571,105.5931954,4.92,'11111222,11111222,11111222' 
TABS,ioos:station:wmo:42046:1,2009-06-03T04:30:00Z,27.8903,-94.0367,4.0,3.558159637,103.4898595,4.5,'11111222,11111222,11111222' 
TABS,ioos:station:wmo:42046:1,2009-06-03T05:00:00Z,27.8903,-94.0367,4.0,4.525980557,117.0749428,5.61,'11111222,11111222,11111222' 
TABS,ioos:station:wmo:42046:1,2009-06-03T05:30:00Z,27.8903,-94.0367,4.0,3.603026506,128.2379418,4.52,'11111222,11111222,11111222' 
TABS,ioos:station:wmo:42046:1,2009-06-03T06:00:00Z,27.8903,-94.0367,4.0,4.535383115,128.2852759,6.0,'11111222,11111222,11111222' 
TABS,ioos:station:wmo:42046:1,2009-06-03T06:30:00Z,27.8903,-94.0367,4.0,3.810839802,128.0731138,4.95,'11111222,11111222,11111222' 
TABS,ioos:station:wmo:42046:1,2009-06-03T07:00:00Z,27.8903,-94.0367,4.0,3.358466912,125.9148247,4.63,'11111222,11111222,11111222' 
TABS,ioos:station:wmo:42046:1,2009-06-03T07:30:00Z,27.8903,-94.0367,4.0,3.825976999,135.9533901,4.7,'11111222,11111222,11111222' 
TABS,ioos:station:wmo:42046:1,2009-06-03T08:00:00Z,27.8903,-94.0367,4.0,4.315228847,155.929927,5.53,'11111222,11111222,11111222' 
TABS,ioos:station:wmo:42046:1,2009-06-03T08:30:00Z,27.8903,-94.0367,4.0,3.979974874,146.2702944,5.4,'11111222,11111222,11111222' 
TABS,ioos:station:wmo:42046:1,2009-06-03T09:00:00Z,27.8903,-94.0367,4.0,4.455389994,150.5584631,5.69,'11111222,11111222,11111222' 
TABS,ioos:station:wmo:42046:1,2009-06-03T09:30:00Z,27.8903,-94.0367,4.0,4.505208097,156.4509911,5.71,'11111222,11111222,11111222' 
TABS,ioos:station:wmo:42046:1,2009-06-03T10:00:00Z,27.8903,-94.0367,4.0,4.440720662,150.8955469,5.73,'11111222,11111222,11111222' 
TABS,ioos:station:wmo:42046:1,2009-06-03T10:30:00Z,27.8903,-94.0367,4.0,4.038861226,147.3332495,5.19,'11111222,11111222,11111222' 
TABS,ioos:station:wmo:42046:1,2009-06-03T11:00:00Z,27.8903,-94.0367,4.0,3.363049212,153.5114124,4.94,'11111222,11111222,11111222' 
TABS,ioos:station:wmo:42046:1,2009-06-03T11:30:00Z,27.8903,-94.0367,4.0,2.957431318,147.7073995,4.04,'11111222,11111222,11111222' 
TABS,ioos:station:wmo:42046:1,2009-06-03T12:00:00Z,27.8903,-94.0367,4.0,1.654206759,165.291941,2.96,'11111222,11111222,11111222' 
TABS,ioos:station:wmo:42046:1,2009-06-03T12:30:00Z,27.8903,-94.0367,4.0,1.824088814,143.6957982,2.41,'11111222,11111222,11111222' 
TABS,ioos:station:wmo:42046:1,2009-06-03T13:00:00Z,27.8903,-94.0367,4.0,2.39585058,159.220294,3.19,'11111222,11111222,11111222' 
TABS,ioos:station:wmo:42046:1,2009-06-03T13:30:00Z,27.8903,-94.0367,4.0,1.69097605,167.3611776,2.7,'11111222,11111222,11111222' 
TABS,ioos:station:wmo:42046:1,2009-06-03T14:00:00Z,27.8903,-94.0367,4.0,0.704556598,173.480424,1.68,'11111222,11111222,11111222' 
TABS,ioos:station:wmo:42046:1,2009-06-03T14:30:00Z,27.8903,-94.0367,4.0,1.600312469,348.8303137,2.4,'11111222,11111222,11111222' 
TABS,ioos:station:wmo:42046:1,2009-06-03T15:00:00Z,27.8903,-94.0367,4.0,3.287689158,200.474619,4.85,'11111222,11111222,11111222' 
TABS,ioos:station:wmo:42046:1,2009-06-03T15:30:00Z,27.8903,-94.0367,4.0,2.691505155,138.3137333,3.7,'11111222,11111222,11111222' 
TABS,ioos:station:wmo:42046:1,2009-06-03T16:00:00Z,27.8903,-94.0367,4.0,2.558612905,125.6161105,3.25,'11111222,11111222,11111222' 
TABS,ioos:station:wmo:42046:1,2009-06-03T16:30:00Z,27.8903,-94.0367,4.0,2.103188056,102.9133315,3.02,'11111222,11111222,11111222' 
TABS,ioos:station:wmo:42046:1,2009-06-03T17:00:00Z,27.8903,-94.0367,4.0,2.186801317,101.8755571,2.78,'11111222,11111222,11111222' 
TABS,ioos:station:wmo:42046:1,2009-06-03T17:30:00Z,27.8903,-94.0367,4.0,2.094683747,112.1573329,2.87,'11111222,11111222,11111222' 
TABS,ioos:station:wmo:42046:1,2009-06-03T18:00:00Z,27.8903,-94.0367,4.0,1.739540169,162.606929,2.45,'11111222,11111222,11111222' 
TABS,ioos:station:wmo:42046:1,2009-06-03T18:30:00Z,27.8903,-94.0367,4.0,2.701184925,162.7727625,3.53,'11111222,11111222,11111222' 
TABS,ioos:station:wmo:42046:1,2009-06-03T19:00:00Z,27.8903,-94.0367,4.0,3.685986978,170.0012586,4.53,'11111222,11111222,11111222' 
TABS,ioos:station:wmo:42046:1,2009-06-03T19:30:00Z,27.8903,-94.0367,4.0,4.063409898,172.6478483,5.88,'11111222,11111222,11111222' 
TABS,ioos:station:wmo:42046:1,2009-06-03T20:00:00Z,27.8903,-94.0367,4.0,4.522355581,186.8580629,6.22,'11111222,11111222,11111222' 
TABS,ioos:station:wmo:42046:1,2009-06-03T20:30:00Z,27.8903,-94.0367,4.0,4.378641342,210.3130907,5.42,'11111222,11111222,11111222' 
TABS,ioos:station:wmo:42046:1,2009-06-03T21:00:00Z,27.8903,-94.0367,4.0,4.448145681,216.4063083,5.57,'11111222,11111222,11111222' 
TABS,ioos:station:wmo:42046:1,2009-06-03T21:30:00Z,27.8903,-94.0367,4.0,3.62088387,219.8462087,4.83,'11111222,11111222,11111222' 
TABS,ioos:station:wmo:42046:1,2009-06-03T22:00:00Z,27.8903,-94.0367,4.0,3.710795063,247.1663992,4.57,'11111222,11111222,11111222' 
TABS,ioos:station:wmo:42046:1,2009-06-03T22:30:00Z,27.8903,-94.0367,4.0,2.900637861,258.2639679,3.67,'11111222,11111222,11111222' 
TABS,ioos:station:wmo:42046:1,2009-06-03T23:00:00Z,27.8903,-94.0367,4.0,2.850491186,282.768599,3.71,'11111222,11111222,11111222' 
TABS,ioos:station:wmo:42046:1,2009-06-03T23:30:00Z,27.8903,-94.0367,4.0,2.790161286,270.6160585,3.29,'11111222,11111222,11111222' 
TABS,ioos:station:wmo:42046:1,2009-06-04T00:00:00Z,27.8903,-94.0367,4.0,1.91760267,300.0412937,2.57,'11111222,11111222,11111222' 
TABS,ioos:station:wmo:42046:1,2009-06-04T00:30:00Z,27.8903,-94.0367,4.0,1.674305826,322.0348542,2.23,'11111222,11111222,11111222' 
TABS,ioos:station:wmo:42046:1,2009-06-04T01:00:00Z,27.8903,-94.0367,4.0,1.425798022,349.0839326,2.01,'11111222,11111222,11111222' 
TABS,ioos:station:wmo:42046:1,2009-06-04T01:30:00Z,27.8903,-94.0367,4.0,1.565247584,280.3048224,1.93,'11111222,11111222,11111222' 
TABS,ioos:station:wmo:42046:1,2009-06-04T02:00:00Z,27.8903,-94.0367,4.0,1.653027525,220.338243,2.04,'11111222,11111222,11111222' 
TABS,ioos:station:wmo:42046:1,2009-06-04T02:30:00Z,27.8903,-94.0367,4.0,2.093442142,229.8440943,2.63,'11111222,11111222,11111222' 
TABS,ioos:station:wmo:42046:1,2009-06-04T03:00:00Z,27.8903,-94.0367,4.0,2.419194081,234.9304516,3.14,'11111222,11111222,11111222' 
TABS,ioos:station:wmo:42046:1,2009-06-04T03:30:00Z,27.8903,-94.0367,4.0,2.035927307,208.4533831,2.71,'11111222,11111222,11111222' 
TABS,ioos:station:wmo:42046:1,2009-06-04T04:00:00Z,27.8903,-94.0367,4.0,2.530316186,195.3545926,3.24,'11111222,11111222,11111222' 
TABS,ioos:station:wmo:42046:1,2009-06-04T04:30:00Z,27.8903,-94.0367,4.0,3.349656699,206.7946869,4.27,'11111222,11111222,11111222' 
TABS,ioos:station:wmo:42046:1,2009-06-04T05:00:00Z,27.8903,-94.0367,4.0,3.5554184,206.9255447,4.3,'11111222,11111222,11111222' 
TABS,ioos:station:wmo:42046:1,2009-06-04T05:30:00Z,27.8903,-94.0367,4.0,3.418669332,201.9883004,4.1,'11111222,11111222,11111222' 
TABS,ioos:station:wmo:42046:1,2009-06-04T06:00:00Z,27.8903,-94.0367,4.0,3.637196723,203.3228526,4.46,'11111222,11111222,11111222' 
TABS,ioos:station:wmo:42046:1,2009-06-04T06:30:00Z,27.8903,-94.0367,4.0,4.267692585,202.599368,5.06,'11111222,11111222,11111222' 
TABS,ioos:station:wmo:42046:1,2009-06-04T07:00:00Z,27.8903,-94.0367,4.0,4.492449221,208.4477452,5.55,'11111222,11111222,11111222' 
TABS,ioos:station:wmo:42046:1,2009-06-04T07:30:00Z,27.8903,-94.0367,4.0,5.120644491,206.8153973,6.31,'11111222,11111222,11111222' 
TABS,ioos:station:wmo:42046:1,2009-06-04T08:00:00Z,27.8903,-94.0367,4.0,5.114313248,210.4259231,6.3,'11111222,11111222,11111222' 
TABS,ioos:station:wmo:42046:1,2009-06-04T08:30:00Z,27.8903,-94.0367,4.0,5.493650881,209.3181264,6.66,'11111222,11111222,11111222' 
TABS,ioos:station:wmo:42046:1,2009-06-04T09:00:00Z,27.8903,-94.0367,4.0,6.083921433,221.7353236,7.46,'11111222,11111222,11111222' 
TABS,ioos:station:wmo:42046:1,2009-06-04T09:30:00Z,27.8903,-94.0367,4.0,5.854912467,224.7233168,7.08,'11111222,11111222,11111222' 
TABS,ioos:station:wmo:42046:1,2009-06-04T10:00:00Z,27.8903,-94.0367,4.0,5.568707211,227.1104258,6.96,'11111222,11111222,11111222' 
TABS,ioos:station:wmo:42046:1,2009-06-04T10:30:00Z,27.8903,-94.0367,4.0,5.300537709,231.3571636,6.72,'11111222,11111222,11111222' 
TABS,ioos:station:wmo:42046:1,2009-06-04T11:00:00Z,27.8903,-94.0367,4.0,5.657031023,232.0362745,7.13,'11111222,11111222,11111222' 
TABS,ioos:station:wmo:42046:1,2009-06-04T11:30:00Z,27.8903,-94.0367,4.0,5.617552848,240.1033786,7.04,'11111222,11111222,11111222' 
TABS,ioos:station:wmo:42046:1,2009-06-04T12:00:00Z,27.8903,-94.0367,4.0,4.438490734,238.6378209,5.55,'11111222,11111222,11111222' 
TABS,ioos:station:wmo:42046:1,2009-06-04T12:30:00Z,27.8903,-94.0367,4.0,4.379874427,347.7406023,12.06,'11111222,11111222,11111222' 
TABS,ioos:station:wmo:42046:1,2009-06-04T13:00:00Z,27.8903,-94.0367,4.0,7.018525486,38.9272421,10.41,'11111222,11111222,11111222' 
TABS,ioos:station:wmo:42046:1,2009-06-04T13:30:00Z,27.8903,-94.0367,4.0,2.531264506,178.1890939,3.73,'11111222,11111222,11111222' 
TABS,ioos:station:wmo:42046:1,2009-06-04T14:00:00Z,27.8903,-94.0367,4.0,5.855681002,164.0414116,8.11,'11111222,11111222,11111222' 
TABS,ioos:station:wmo:42046:1,2009-06-04T14:30:00Z,27.8903,-94.0367,4.0,5.303630832,158.6602565,6.73,'11111222,11111222,11111222' 
TABS,ioos:station:wmo:42046:1,2009-06-04T15:00:00Z,27.8903,-94.0367,4.0,5.812099449,173.9757388,7.55,'11111222,11111222,11111222' 
TABS,ioos:station:wmo:42046:1,2009-06-04T15:30:00Z,27.8903,-94.0367,4.0,5.022041418,174.6301992,6.51,'11111222,11111222,11111222' 
TABS,ioos:station:wmo:42046:1,2009-06-04T16:00:00Z,27.8903,-94.0367,4.0,3.985599077,197.0711918,5.08,'11111222,11111222,11111222' 
TABS,ioos:station:wmo:42046:1,2009-06-04T16:30:00Z,27.8903,-94.0367,4.0,3.229876159,209.8990424,4.38,'11111222,11111222,11111222' 
TABS,ioos:station:wmo:42046:1,2009-06-04T17:00:00Z,27.8903,-94.0367,4.0,3.669795635,283.3924664,4.72,'11111222,11111222,11111222' 
TABS,ioos:station:wmo:42046:1,2009-06-04T17:30:00Z,27.8903,-94.0367,4.0,3.62990358,294.2348857,4.45,'11111222,11111222,11111222' 
TABS,ioos:station:wmo:42046:1,2009-06-04T18:00:00Z,27.8903,-94.0367,4.0,4.458968491,328.9479583,5.49,'11111222,11111222,11111222' 
TABS,ioos:station:wmo:42046:1,2009-06-04T18:30:00Z,27.8903,-94.0367,4.0,4.580927854,329.572365,5.84,'11111222,11111222,11111222' 